Flag for Norfolk Island Weather past 2 weeks in Kingston, Norfolk Island

Now
66 °F

Scattered clouds.


Feels Like: 66 °F
Forecast: 61 / 64 °F
Wind: 13 mph from Northeast

Location: Norfolk Island Airport

Current Time: Jul 2, 2015 at 3:39:49 PM

Latest Report: Jul 2, 2015 at 3:00 PM


Visibility: N/A

Pressure: 30.04 "Hg

Humidity: 60%

Dew point: 52 °F

Location of KingstonLocation

Historic Weather in Kingston — Graph

°F

Kingston temperature yesterday

Maximum temperature yesterday: 64 °F (at 10:00 AM)
Minimum temperature yesterday: 55 °F (at 7:00 PM)
Average temperature yesterday: 59 °F

Past Weeks' High & Low Weather Summary

 TemperatureHumidityPressure
High70 °F (Jun 19, 11:00 AM)100% (Jun 20, 9:30 AM)30.39 "Hg (Jun 20, 9:30 AM)
Low54 °F (Jun 25, 12:30 AM)43% (Jun 18, 6:30 AM)29.86 "Hg (Jun 20, 12:30 PM)
Average62 °F66%30.20 "Hg
* Reported Jun 17 1:30 PM — Jul 2 2:00 PM, Kingston, Weather by CustomWeather, © 2015

Note: Actual official high and low records may vary slightly from our data, if they occured in-between our weather recording intervals... More about our weather records

Advertising

Kingston weather history for previous 24 hours

 ConditionsComfort  
Time TempWeatherWind HumidityBarometerVisibility
2:00 PM
Thu, Jul 2
66 °FScattered clouds.13 mph52%30.04 "HgN/A
1:30 PM66 °FPassing clouds.13 mph52%30.07 "HgN/A
12:30 PM66 °FPassing clouds.13 mph52%30.09 "HgN/A
12:00 PM66 °FPassing clouds.10 mph56%30.12 "HgN/A
11:30 AM66 °FSunny.10 mph60%30.12 "HgN/A
11:00 AM64 °FPassing clouds.13 mph60%30.15 "HgN/A
10:30 AM64 °FPassing clouds.10 mph60%30.15 "HgN/A
10:00 AM64 °FPassing clouds.12 mph60%30.15 "HgN/A
9:30 AM64 °FPassing clouds.10 mph64%30.15 "HgN/A
8:30 AM59 °FScattered clouds.6 mph77%30.15 "HgN/A
8:00 AM59 °FPassing clouds.7 mph72%30.15 "HgN/A
7:30 AM55 °FPassing clouds.7 mph77%30.12 "HgN/A
7:00 AM57 °FSunny.6 mph72%30.12 "HgN/A
6:30 AM54 °FClear.8 mph82%30.12 "HgN/A
6:00 AM55 °FClear.7 mph77%30.12 "HgN/A
5:30 AM55 °FClear.7 mph77%30.12 "HgN/A
5:00 AM57 °FClear.7 mph72%30.12 "HgN/A
4:30 AM55 °FClear.7 mph77%30.12 "HgN/A
4:00 AM59 °FClear.8 mph68%30.15 "HgN/A
3:30 AM57 °FClear.7 mph72%30.15 "HgN/A
3:00 AM59 °FClear.9 mph68%30.15 "HgN/A
2:30 AM57 °FClear.9 mph72%30.18 "HgN/A
2:00 AM57 °FClear.9 mph67%30.18 "HgN/A
1:30 AM54 °FClear.8 mph72%30.18 "HgN/A
1:00 AM55 °FClear.7 mph67%30.21 "HgN/A
12:30 AM59 °FClear.7 mph59%30.21 "HgN/A
12:00 AM55 °FClear.5 mph67%30.21 "HgN/A
11:30 PM
Wed, Jul 1
55 °FPassing clouds.7 mph67%30.21 "HgN/A
11:00 PM55 °FPassing clouds.6 mph67%30.21 "HgN/A
10:30 PM57 °FPassing clouds.6 mph63%30.21 "HgN/A
10:00 PM55 °FPassing clouds.6 mph72%30.24 "HgN/A
9:30 PM57 °FPassing clouds.5 mph63%30.24 "HgN/A
9:00 PM55 °FPassing clouds.5 mph67%30.24 "HgN/A
8:30 PM57 °FPassing clouds.6 mph63%30.24 "HgN/A
8:00 PM55 °FPassing clouds.6 mph72%30.21 "HgN/A
7:30 PM57 °FPassing clouds.6 mph67%30.21 "HgN/A
7:00 PM55 °FPassing clouds.6 mph72%30.21 "HgN/A
6:30 PM57 °FPassing clouds.7 mph67%30.21 "HgN/A
6:00 PM57 °FPassing clouds.5 mph72%30.21 "HgN/A
5:30 PM59 °FPassing clouds.6 mph68%30.21 "HgN/A
5:00 PM61 °FPassing clouds.7 mph63%30.21 "HgN/A
4:30 PM63 °FPassing clouds.7 mph56%30.21 "HgN/A
4:00 PM61 °FPassing clouds.7 mph59%30.24 "HgN/A
3:00 PM64 °FPassing clouds.7 mph56%30.24 "HgN/A
Weather by CustomWeather, © 2015

See weather overviewHow to use our weather pages